Date String (YYYY-MM-DD hh:mm:ss) UTC,Instrument flags,Ambient pressure (hPa),Sample flow (lpm),Bypass flow (lpm),Sample temperature (°C),Ambient temperature (°C),ASC tube jacket temperature (°C),LED temperature (°C),Box temperature (°C),Sample RH (%),Span deviation,Mass concentration (μg/m³),Mass concentration (μg/m³),Mass concentration (μg/m³)
DateTimeUTC,F1_M11,P_M11,Q1_M11,Q2_M11,T1_M11,T2_M11,T3_M11,T4_M11,T5_M11,U1_M11,ZSPAN_M11,X0_M11,X2_M11,X1_M11
2022-02-28 01:00:00,,0830.2,5.00,0.00,28.5,27.7,00.0,37.6,30.2,07.7,0003.8,0011.35,0008.18,0007.74
2022-02-28 01:01:00,,0830.2,4.99,0.00,28.5,27.7,00.0,37.6,30.2,07.7,0003.3,0011.27,0008.11,0007.68
2022-02-28 01:02:00,,0830.2,5.00,0.00,28.5,27.7,00.0,37.6,30.2,07.8,0003.4,0011.15,0008.10,0007.69
2022-02-28 01:03:00,,0830.2,4.99,0.00,28.5,27.7,00.0,37.5,30.2,07.7,0003.5,0011.03,0008.11,0007.71
2022-02-28 01:04:00,,0830.2,5.01,0.00,28.5,27.6,00.0,37.5,30.3,07.8,0003.1,0011.15,0008.16,0007.73
2022-02-28 01:05:00,,0830.2,4.99,0.00,28.5,27.7,00.0,37.5,30.3,07.9,0003.9,0011.47,0008.20,0007.74
2022-02-28 01:06:00,,0830.3,5.00,0.00,28.5,27.7,00.0,37.5,30.3,08.0,0004.1,0011.34,0008.16,0007.70
2022-02-28 01:07:00,,0830.2,4.99,0.00,28.5,27.7,00.0,37.5,30.3,07.7,0004.3,0011.76,0008.19,0007.74
2022-02-28 01:08:00,,0830.3,4.99,0.00,28.5,27.7,00.0,37.5,30.3,07.5,0003.8,0012.22,0008.32,0007.88
2022-02-28 01:09:00,,0830.3,5.00,0.00,28.5,27.7,00.0,37.5,30.3,07.5,0002.7,0012.53,0008.49,0008.05
2022-02-28 01:10:00,,0830.2,5.02,0.00,28.5,27.7,00.0,37.5,30.3,07.4,0003.2,0013.29,0008.69,0008.23
2022-02-28 01:11:00,,0830.2,5.00,0.00,28.5,27.7,00.0,37.5,30.3,07.4,0002.6,0013.52,0008.92,0008.47
2022-02-28 01:12:00,,0830.2,4.99,0.00,28.5,27.6,00.0,37.5,30.3,07.4,0002.5,0014.02,0009.16,0008.70
2022-02-28 01:13:00,,0830.2,4.99,0.00,28.5,27.6,00.0,37.5,30.3,07.4,0002.1,0014.28,0009.33,0008.85
2022-02-28 01:14:00,,0830.2,5.00,0.00,28.5,27.5,00.0,37.5,30.2,07.5,0001.4,0014.47,0009.48,0009.00
2022-02-28 01:15:00,,0830.2,5.01,0.00,28.5,27.6,00.0,37.5,30.2,07.5,0001.8,0014.69,0009.68,0009.19
2022-02-28 01:16:00,,0830.2,4.99,0.00,28.5,27.6,00.0,37.5,30.2,07.5,0002.3,0014.70,0009.96,0009.45
2022-02-28 01:17:00,,0830.3,5.00,0.00,28.5,27.6,00.0,37.5,30.2,07.5,0002.5,0015.74,0010.28,0009.75
2022-02-28 01:18:00,,0830.3,5.00,0.00,28.5,27.5,00.0,37.5,30.2,07.4,0002.7,0017.33,0010.54,0010.00
2022-02-28 01:19:00,,0830.2,4.99,0.00,28.5,27.5,00.0,37.5,30.2,07.4,0002.4,0017.76,0010.72,0010.15
2022-02-28 01:20:00,,0830.2,5.01,0.00,28.4,27.5,00.0,37.5,30.2,07.4,0002.8,0018.09,0010.91,0010.30
2022-02-28 01:21:00,,0830.3,5.00,0.00,28.4,27.5,00.0,37.5,30.2,07.4,0002.7,0017.64,0011.07,0010.43
2022-02-28 01:22:00,,0830.3,4.99,0.00,28.4,27.5,00.0,37.5,30.2,07.5,0002.9,0017.82,0011.17,0010.51
2022-02-28 01:23:00,,0830.2,5.01,0.00,28.4,27.5,00.0,37.5,30.2,07.6,0004.5,0017.89,0011.28,0010.61
2022-02-28 01:24:00,,0830.2,4.99,0.00,28.4,27.5,00.0,37.5,30.1,07.6,0005.1,0018.49,0011.44,0010.73
2022-02-28 01:25:00,,0830.2,4.99,0.00,28.4,27.5,00.0,37.5,30.1,07.6,0004.4,0018.76,0011.59,0010.87
2022-02-28 01:26:00,,0830.2,5.00,0.00,28.4,27.5,00.0,37.5,30.0,07.7,0004.1,0018.97,0011.68,0010.97
2022-02-28 01:27:00,,0830.2,5.01,0.00,28.3,27.5,00.0,37.4,30.0,07.8,0004.1,0019.86,0011.75,0011.03
2022-02-28 01:28:00,,0830.2,5.00,0.00,28.3,27.4,00.0,37.4,30.0,07.9,0003.7,0019.34,0011.81,0011.10
2022-02-28 01:29:00,,0830.3,4.99,0.00,28.3,27.4,00.0,37.4,30.0,08.1,0002.7,0017.98,0011.84,0011.15
2022-02-28 01:30:00,,0830.2,5.00,0.00,28.3,27.4,00.0,37.4,30.0,08.3,0001.8,0016.96,0011.87,0011.18
2022-02-28 01:31:00,,0830.2,5.00,0.00,28.3,27.4,00.0,37.4,30.0,08.3,0001.8,0016.71,0011.88,0011.21
2022-02-28 01:32:00,,0830.2,5.01,0.00,28.3,27.3,00.0,37.4,30.0,08.3,0001.6,0016.71,0011.92,0011.24
2022-02-28 01:33:00,,0830.2,5.01,0.00,28.2,27.3,00.0,37.4,30.0,08.2,0001.9,0016.91,0011.96,0011.27
2022-02-28 01:34:00,,0830.3,5.01,0.00,28.3,27.3,00.0,37.3,30.0,08.2,0002.6,0017.23,0012.03,0011.30
2022-02-28 01:35:00,,0830.2,5.00,0.00,28.3,27.3,00.0,37.3,30.0,08.3,0002.6,0016.80,0012.08,0011.34
2022-02-28 01:36:00,,0830.2,5.00,0.00,28.2,27.3,00.0,37.3,30.0,08.3,0003.1,0017.36,0012.12,0011.35
2022-02-28 01:37:00,,0830.3,4.99,0.00,28.2,27.3,00.0,37.3,30.0,08.4,0003.4,0017.38,0012.11,0011.35
2022-02-28 01:38:00,,0830.3,4.99,0.00,28.2,27.4,00.0,37.3,29.9,08.4,0002.8,0017.00,0012.04,0011.33
2022-02-28 01:39:00,,0830.3,4.99,0.00,28.2,27.4,00.0,37.3,29.9,08.4,0002.5,0016.80,0012.01,0011.30
2022-02-28 01:40:00,,0830.3,5.00,0.00,28.2,27.4,00.0,37.3,29.9,08.5,0002.7,0017.07,0012.07,0011.33
2022-02-28 01:41:00,,0830.4,5.00,0.00,28.2,27.4,00.0,37.3,29.9,08.5,0004.2,0018.02,0012.16,0011.36
2022-02-28 01:42:00,,0830.4,5.00,0.00,28.2,27.4,00.0,37.3,29.9,08.5,0004.4,0018.14,0012.19,0011.40
2022-02-28 01:43:00,,0830.4,5.01,0.00,28.2,27.4,00.0,37.3,29.9,08.5,0004.4,0018.61,0012.22,0011.45
2022-02-28 01:44:00,,0830.4,5.00,0.00,28.2,27.3,00.0,37.3,29.9,08.5,0004.1,0018.91,0012.28,0011.50
2022-02-28 01:45:00,,0830.4,5.00,0.00,28.2,27.4,00.0,37.2,29.9,08.5,0003.4,0018.51,0012.28,0011.53
2022-02-28 01:46:00,,0830.4,5.00,0.00,28.2,27.3,00.0,37.2,29.9,08.6,0004.0,0018.57,0012.30,0011.56
2022-02-28 01:47:00,,0830.4,4.99,0.00,28.2,27.3,00.0,37.2,29.9,08.6,0003.9,0018.12,0012.35,0011.58
2022-02-28 01:48:00,,0830.4,5.01,0.00,28.1,27.3,00.0,37.2,29.9,08.5,0003.7,0018.05,0012.42,0011.62
2022-02-28 01:49:00,,0830.3,5.00,0.00,28.1,27.3,00.0,37.2,29.8,08.4,0003.8,0017.67,0012.46,0011.64
2022-02-28 01:50:00,,0830.3,5.01,0.00,28.1,27.3,00.0,37.2,29.8,08.4,0004.0,0017.68,0012.44,0011.64
2022-02-28 01:51:00,,0830.4,5.01,0.00,28.1,27.3,00.0,37.2,29.7,08.5,0004.1,0017.49,0012.36,0011.63
2022-02-28 01:52:00,,0830.4,5.00,0.00,28.1,27.3,00.0,37.2,29.7,08.5,0003.4,0016.60,0012.27,0011.57
2022-02-28 01:53:00,,0830.4,5.00,0.00,28.0,27.3,00.0,37.2,29.7,08.4,0003.4,0016.51,0012.21,0011.48
2022-02-28 01:54:00,,0830.4,5.00,0.00,28.0,27.3,00.0,37.1,29.7,08.5,0003.5,0015.91,0012.10,0011.39
2022-02-28 01:55:00,,0830.4,5.00,0.00,28.0,27.2,00.0,37.1,29.7,08.5,0003.7,0015.82,0012.03,0011.33
2022-02-28 01:56:00,,0830.4,5.00,0.00,28.0,27.2,00.0,37.1,29.7,08.5,0003.5,0016.07,0011.99,0011.30
2022-02-28 01:57:00,,0830.5,4.99,0.00,28.0,27.2,00.0,37.1,29.6,08.5,0002.8,0015.96,0011.95,0011.25
2022-02-28 01:58:00,,0830.5,4.99,0.00,28.0,27.2,00.0,37.1,29.6,08.6,0002.5,0015.98,0011.91,0011.23
2022-02-28 01:59:00,,0830.6,4.99,0.00,27.9,27.2,00.0,37.1,29.6,08.6,0002.6,0015.90,0011.79,0011.18
